KD2BVA Weather Reports


Display with metric or nautical units.
time (UTC)temp
F
wind
direction
speed
MPH
gust
MPH
rain 1hr
in
rain 24hr
in
rain mn
in
humidity
%
barometer
mb
20260504002524 48 137 0.0 4.0 0.00 0.00 0.00 42 994.4
20260504002035 49 78 0.0 2.0 0.00 0.00 0.00 41 994.3
20260504001544 50 251 0.0 1.0 0.00 0.00 0.00 40 994.3
20260504001025 51 251 0.0 2.0 0.00 0.00 0.00 38 994.1
20260504000535 51 251 0.0 2.0 0.00 0.00 0.00 36 994.1
20260504000043 52 237 0.0 4.0 0.00 0.00 0.00 36 994.0
20260503235525 52 252 1.0 4.0 0.00 0.00 0.00 35 993.9
20260503235035 52 266 1.0 4.0 0.00 0.00 0.00 35 993.9
20260503234546 53 231 1.0 4.0 0.00 0.00 0.00 33 993.8
20260503234023 53 119 1.0 5.0 0.00 0.00 0.00 32 993.7
20260503233533 53 341 1.0 6.0 0.00 0.00 0.00 32 993.7
20260503233025 53 244 1.0 4.0 0.00 0.00 0.00 31 993.6
20260503232531 54 27 1.0 4.0 0.00 0.00 0.00 28 993.5
20260503232038 54 271 0.0 6.0 0.00 0.00 0.00 28 993.4
20260503231545 55 280 1.0 6.0 0.00 0.00 0.00 27 993.3
20260503231023 55 262 0.0 5.0 0.00 0.00 0.00 26 993.2
20260503230532 56 269 2.0 6.0 0.00 0.00 0.00 25 993.2
20260503230037 57 253 1.0 5.0 0.00 0.00 0.00 26 993.1
20260503225536 58 287 1.0 6.0 0.00 0.00 0.00 25 993.1
20260503225023 58 129 2.0 6.0 0.00 0.00 0.00 24 993.0
20260503224549 59 101 1.0 4.0 0.00 0.00 0.00 24 993.0
20260503224027 59 104 0.0 9.0 0.00 0.00 0.00 27 992.9
20260503223538 59 238 2.0 9.0 0.00 0.00 0.00 25 992.9
20260503223043 59 114 1.0 7.0 0.00 0.00 0.00 27 992.9
20260503222551 59 96 3.0 7.0 0.00 0.00 0.00 26 992.9
20260503222028 59 347 4.0 7.0 0.00 0.00 0.00 26 992.8
20260503221534 59 165 1.0 3.0 0.00 0.00 0.00 29 992.9
20260503221028 59 217 1.0 2.0 0.00 0.00 0.00 30 992.9
20260503220539 59 94 0.0 3.0 0.00 0.00 0.00 31 992.9
20260503220047 60 94 1.0 3.0 0.00 0.00 0.00 30 992.8
20260503215527 60 115 1.0 3.0 0.00 0.00 0.00 29 992.9
20260503215034 60 89 1.0 3.0 0.00 0.00 0.00 28 992.9
20260503214539 61 284 1.0 3.0 0.00 0.00 0.00 28 992.9
20260503214048 60 263 1.0 4.0 0.00 0.00 0.00 29 993.0
20260503213530 60 115 1.0 4.0 0.00 0.00 0.00 29 993.0
20260503213039 60 278 2.0 4.0 0.00 0.00 0.00 30 993.0
20260503212519 60 167 1.0 6.0 0.00 0.00 0.00 31 993.0
20260503212029 60 285 1.0 4.0 0.00 0.00 0.00 32 993.0
20260503211540 60 326 2.0 4.0 0.00 0.00 0.00 31 993.1
20260503211029 60 240 1.0 6.0 0.00 0.00 0.00 31 993.2
20260503210550 59 255 1.0 6.0 0.00 0.00 0.00 33 993.0
20260503210100 58 115 1.0 4.0 0.00 0.00 0.00 34 993.0
20260503205543 58 290 1.0 4.0 0.00 0.00 0.00 35 993.2
20260503205051 58 289 1.0 6.0 0.00 0.00 0.00 34 993.2
20260503204559 57 65 2.0 10.0 0.00 0.00 0.00 33 993.3
20260503204024 57 255 3.0 10.0 0.00 0.00 0.00 32 993.4
20260503203525 57 14 1.0 8.0 0.00 0.00 0.00 37 993.4
20260503203034 56 103 1.0 8.0 0.00 0.00 0.00 38 993.4
20260503202543 55 131 2.0 4.0 0.00 0.00 0.00 36 993.6
20260503202024 55 56 1.0 4.0 0.00 0.00 0.00 37 993.5
20260503201535 55 71 1.0 5.0 0.00 0.00 0.00 36 993.6
20260503201044 55 79 1.0 8.0 0.00 0.00 0.00 37 993.6
20260503200527 55 255 1.0 6.0 0.00 0.00 0.00 38 993.7
20260503200036 54 349 2.0 12.0 0.00 0.00 0.00 40 993.7
20260503195546 54 309 3.0 12.0 0.00 0.00 0.00 38 993.8
20260503195026 53 311 1.0 8.0 0.00 0.00 0.00 38 993.8
20260503194538 53 274 3.0 10.0 0.00 0.00 0.00 37 993.9
20260503194030 54 330 3.0 10.0 0.00 0.00 0.00 37 993.9
20260503193539 54 17 1.0 5.0 0.00 0.00 0.00 38 993.9
20260503193027 54 248 2.0 9.0 0.00 0.00 0.00 38 994.0
20260503192528 54 235 1.0 9.0 0.00 0.00 0.00 39 994.1
20260503192038 54 56 2.0 5.0 0.00 0.00 0.00 38 994.0
20260503191527 53 298 1.0 6.0 0.00 0.00 0.00 40 994.1
20260503191028 54 87 1.0 3.0 0.00 0.00 0.00 38 994.2
20260503190540 54 156 1.0 3.0 0.00 0.00 0.00 41 994.2
20260503190031 53 19 1.0 5.0 0.00 0.00 0.00 43 994.4
20260503185532 53 288 2.0 5.0 0.00 0.00 0.00 41 994.3
20260503185021 53 271 1.0 7.0 0.00 0.00 0.00 41 994.4
20260503184522 53 6 2.0 7.0 0.00 0.00 0.00 40 994.5
20260503184033 53 252 0.0 3.0 0.00 0.00 0.00 43 994.6
20260503183544 53 226 1.0 8.0 0.00 0.00 0.00 40 994.5
20260503183020 53 271 1.0 2.0 0.00 0.00 0.00 42 994.6
20260503182530 52 288 0.0 5.0 0.00 0.00 0.00 43 994.7
20260503182040 52 65 1.0 6.0 0.00 0.00 0.00 43 994.7
20260503181521 52 245 2.0 6.0 0.00 0.00 0.00 44 994.8
20260503181031 52 238 1.0 5.0 0.00 0.00 0.00 42 994.7
20260503180538 52 308 1.0 5.0 0.00 0.00 0.00 41 994.8
20260503180037 52 20 1.0 5.0 0.00 0.00 0.00 43 994.8
20260503175528 51 239 2.0 7.0 0.00 0.00 0.00 42 994.8
20260503175037 51 33 1.0 7.0 0.00 0.00 0.00 41 994.8
20260503174539 51 58 2.0 4.0 0.00 0.00 0.00 42 994.9
20260503174028 51 236 1.0 3.0 0.00 0.00 0.00 44 994.9
20260503173530 51 90 0.0 4.0 0.00 0.00 0.00 43 994.9
20260503173038 50 285 1.0 4.0 0.00 0.00 0.00 43 995.0
20260503172525 50 38 1.0 3.0 0.00 0.00 0.00 45 995.1
20260503172024 51 285 0.0 3.0 0.00 0.00 0.00 43 995.0
20260503171535 51 141 0.0 3.0 0.00 0.00 0.00 44 995.1
20260503171024 50 311 0.0 3.0 0.00 0.00 0.00 45 995.1
20260503170525 50 75 1.0 4.0 0.00 0.00 0.00 43 995.1
20260503150527 50 245 1.0 6.0 0.00 0.00 0.00 50 995.5
20260503131033 46 242 1.0 5.0 0.00 0.00 0.00 65 996.0
20260503130545 46 51 2.0 5.0 0.00 0.00 0.00 66 996.0
20260503110540 42 214 1.0 6.0 0.00 0.00 0.00 77 995.7
20260503081523 40 266 0.0 3.0 0.00 0.01 0.00 80 995.8
20260503081032 40 154 0.0 1.0 0.00 0.01 0.00 80 995.9
20260503080526 40 231 0.0 1.0 0.00 0.01 0.00 79 996.0
20260503072548 40 253 0.0 1.0 0.00 0.01 0.00 78 996.0
20260503072030 40 231 0.0 2.0 0.00 0.01 0.00 78 996.1
20260503071539 40 264 0.0 3.0 0.00 0.01 0.00 79 996.1
20260503071039 40 49 0.0 3.0 0.00 0.01 0.00 79 996.1
20260503070530 40 269 0.0 2.0 0.00 0.01 0.00 79 996.1
20260503055020 39 252 0.0 1.0 0.00 0.04 0.00 78 996.7
20260503054530 39 252 0.0 1.0 0.00 0.04 0.00 79 996.8
20260503054023 38 252 0.0 1.0 0.00 0.04 0.00 80 996.8
20260503053524 38 252 0.0 1.0 0.00 0.04 0.00 80 996.8
20260503053033 38 236 0.0 1.0 0.00 0.04 0.00 80 997.0
20260503052542 38 236 0.0 1.0 0.00 0.04 0.00 80 997.0
20260503052023 38 236 0.0 1.0 0.00 0.04 0.00 80 997.0
20260503051532 38 256 0.0 0.0 0.00 0.04 0.00 80 997.0
20260503051042 38 256 0.0 1.0 0.00 0.04 0.00 82 997.1
20260503050525 37 256 0.0 1.0 0.00 0.04 0.00 82 997.1
20260503050033 37 248 0.0 0.0 0.00 0.05 0.00 85 997.2
20260503045600 37 248 0.0 0.0 0.00 0.05 0.00 84 997.2
20260503045047 37 248 0.0 0.0 0.00 0.05 0.00 84 997.2
20260503044556 37 248 0.0 0.0 0.00 0.05 0.00 84 997.2
20260503044044 37 248 0.0 0.0 0.00 0.05 0.00 84 997.2
20260503043553 37 248 0.0 0.0 0.00 0.05 0.00 84 997.2
20260503043102 37 248 0.0 0.0 0.00 0.05 0.00 84 997.2
20260503042550 37 248 0.0 0.0 0.00 0.05 0.00 84 997.2
20260503042059 37 248 0.0 0.0 0.00 0.05 0.00 82 997.2
20260503041606 37 248 0.0 0.0 0.00 0.05 0.00 81 997.3
20260503041045 37 248 0.0 0.0 0.00 0.05 0.00 82 997.4
20260503040607 37 248 0.0 0.0 0.00 0.05 0.00 82 997.4
20260503040044 38 248 0.0 0.0 0.00 0.05 0.05 82 997.4
20260503035605 38 248 0.0 0.0 0.00 0.05 0.05 82 997.4
20260503035025 38 248 0.0 0.0 0.00 0.05 0.05 83 997.4
20260503034536 38 248 0.0 0.0 0.00 0.05 0.05 83 997.5
20260503034037 37 248 0.0 0.0 0.00 0.05 0.05 83 997.5
20260503033529 37 248 0.0 0.0 0.00 0.05 0.05 80 997.4
20260503033038 37 248 0.0 0.0 0.00 0.05 0.05 79 997.4
20260503032538 37 248 0.0 0.0 0.00 0.05 0.05 79 997.4
20260503032028 36 248 0.0 0.0 0.00 0.05 0.05 80 997.4
20260503031528 36 248 0.0 0.0 0.00 0.05 0.05 80 997.4
20260503031034 37 248 0.0 0.0 0.00 0.05 0.05 80 997.4
20260503030525 37 248 0.0 0.0 0.00 0.05 0.05 79 997.4
20260503030025 37 248 0.0 0.0 0.00 0.05 0.05 78 997.4
20260503025536 37 248 0.0 0.0 0.00 0.05 0.05 78 997.5
20260503025045 37 248 0.0 0.0 0.00 0.05 0.05 77 997.5
20260503024533 37 248 0.0 0.0 0.00 0.05 0.05 77 997.4
20260503024044 37 248 0.0 0.0 0.00 0.05 0.05 78 997.4
20260503023525 37 248 0.0 0.0 0.00 0.05 0.05 77 997.5
20260503023042 37 248 0.0 0.0 0.00 0.05 0.05 77 997.5
20260503022521 37 248 0.0 0.0 0.00 0.05 0.05 76 997.5
20260503022029 37 248 0.0 0.0 0.00 0.05 0.05 76 997.6
20260503021544 37 248 0.0 0.0 0.00 0.05 0.05 76 997.6
20260503021023 37 248 0.0 0.0 0.00 0.05 0.05 76 997.6
20260503020532 37 248 0.0 0.0 0.00 0.05 0.05 75 997.7
20260503020020 37 248 0.0 0.0 0.00 0.05 0.05 74 997.6
20260503015528 37 248 0.0 0.0 0.00 0.05 0.05 73 997.7
20260503015036 38 248 0.0 0.0 0.00 0.05 0.05 72 997.7
20260503014542 38 248 0.0 0.0 0.00 0.05 0.05 71 997.7
20260503014022 38 248 0.0 0.0 0.00 0.05 0.05 71 997.7
20260503013533 38 248 0.0 0.0 0.00 0.05 0.05 71 997.6
20260503013043 38 248 0.0 0.0 0.00 0.05 0.05 69 997.7
20260503012540 38 248 0.0 0.0 0.00 0.05 0.05 68 997.6
20260503012029 38 248 0.0 0.0 0.00 0.05 0.05 66 997.7
20260503011535 38 248 0.0 0.0 0.00 0.05 0.05 66 997.7
20260503011024 39 248 0.0 0.0 0.00 0.05 0.05 64 997.6
20260503010533 39 248 0.0 0.0 0.00 0.05 0.05 63 997.6
20260503010042 40 248 0.0 0.0 0.00 0.05 0.05 63 997.6
20260503005522 40 248 0.0 0.0 0.00 0.05 0.05 62 997.5
20260503005033 41 248 0.0 0.0 0.00 0.05 0.05 61 997.5
20260503004541 42 248 0.0 0.0 0.00 0.05 0.05 60 997.4
20260503004021 43 248 0.0 0.0 0.00 0.05 0.05 57 997.3
20260503003533 43 248 0.0 1.0 0.00 0.05 0.05 56 997.3
20260503003041 44 248 0.0 0.0 0.00 0.05 0.05 53 997.3